393  
ASUS44 KEWX 270812  
RWREWX  
SOUTH TEXAS REGIONAL WEATHER ROUNDUP  
NATIONAL WEATHER SERVICE AUSTIN/SAN ANTONIO TX  
300 AM CDT MON MAR 27 2017  
 
NOTE: "FAIR" INDICATED FEW OR NO CLOUDS BELOW 12,000 FEET WITH NO  
SIGNIFICANT WEATHER AND/OR S TO VISIBILITY
.  
 
* - THESE STATIONS ARE NOT NWS OR FAA STATIONS...AND ARE NOT SUBJECT  
TO NWS AND FAA QUALITY CONTROL.
 
 
TXZ171-172-183>190-270900-  
TEXAS HILL COUNTRY AND EDWARDS PLATEAU  
 
CITY SKY/WX TMP DP RH WIND PRES REMARKS
 
JUNCTION CLEAR 66 61 84 S6 29.86S  
*LLANO PTCLDY 70 66 88 CALM 29.88S  
BURNET PTCLDY 68 65 90 S7 29.87S  
*HORSESHOE BAY CLEAR 69 66 91 S6 29.85F  
*KERRVILLE CLOUDY 69 66 92 SE5 29.88S  
*FREDERICKSBRG CLOUDY 69 64 83 S6 29.87F  
*ROCKSPRINGS LGT RAIN 66 64 94 CALM 29.91F  
*BOERNE STAGE CLOUDY 68 64 88 S6 29.87F  
*CASTROVILLE CLOUDY 72 66 83 SE8 29.84F  
HONDO CLOUDY 73 68 84 SE7 29.83S  
*UVALDE CLOUDY 69 67 94 E3 29.83R FOG  
DEL RIO CLEAR 69 65 86 NE7 29.82R  
LAUGHLIN AFB CLEAR 68 67 99 NE6 29.83R  
CARRIZO SPRGS CLEAR 70 66 88 SE6 29.77S  
*EAGLE PASS SUNNY 70 63 78 E5 29.79R  

 
 
TXZ173-191>194-202-209-217>225-228-270900-  
CENTRAL AND SOUTH CENTRAL TEXAS  
 
CITY SKY/WX TMP DP RH WIND PRES REMARKS
 
GEORGETOWN CLEAR 70 64 83 S6 29.84F  
AUSTIN/BERGSTM CLOUDY 73 67 81 S8 29.85R  
AUSTIN/MABRY CLOUDY 71 67 87 CALM 29.88R  
*AUSTIN/EXEC N/A N/A N/A N/A MISG N/A  
*LAGO VISTA DRZL/FOG 69 68 96 S8 29.87F VSB 1/2  
SAN MARCOS CLOUDY 72 66 83 S12 29.86S  
NEW BRAUNFELS CLOUDY 72 66 81 S12 29.84S  
RANDOLPH AFB CLOUDY 71 71 100 S8 29.84F  
PT SAN ANTONIO CLOUDY 71 67 86 SE9 29.81F  
SAN ANTONIO CLOUDY 72 66 81 S10 29.84F  
STINSON FIELD CLOUDY 73 67 81 SE5 29.81F  
*LA GRANGE CLOUDY 71 68 93 S7 29.83F  
*GIDDINGS CLOUDY 69 65 88 S8 29.87R  
*GONZALES CLOUDY 71 70 97 S8 29.84S  

 
 
TXZ163>164-176>182-195>201-210>213-226-227-235-270900-  
SOUTHEAST TEXAS  
 
CITY SKY/WX TMP DP RH WIND PRES REMARKS
 
COLLEGE STN TSTM 70 65 84 N8G24 29.91R  
*BRYAN CLOUDY 68 67 99 S13G24 29.86F  
*CALDWELL NOT AVBL  
*CROCKETT CLOUDY 68 64 88 S12 29.87F  
*BRENHAM CLOUDY 72 69 90 S10G17 29.88R  
HUNTSVILLE CLOUDY 69 64 84 NW7 29.90R  
CONROE CLOUDY 68 66 93 S12 29.86F  
HOUSTON BUSH CLOUDY 72 67 84 S8 29.88F  
HOUSTON HOBBY MOCLDY 72 69 90 S7 29.88F  
*HOUSTON SW AP CLOUDY 68 67 95 CALM 29.89F FOG  
PEARLAND CLOUDY 74 69 85 S6 29.89F  
HOUSTON HOOKS PTCLDY 71 68 90 S5 29.87F  
ELLINGTON FLD NOT AVBL  
SUGAR LAND CLOUDY 72 69 90 SE7 29.88F  
*HOUSTON EXEC CLEAR 68 68 100 SE8 29.89F FOG  
*CLEVELAND MUN CLEAR 67 66 96 S5 29.88F FOG  
*WHARTON PTCLDY 68 66 93 SE5 29.88F  
*COLUMBUS CLOUDY 68 67 94 SE6 29.86F  
*EAGLE LAKE CLOUDY 69 69 99 SE6 29.86F FOG  

 
 
TXZ214>216-236>238-270900-  
THE UPPER TEXAS COAST  
 
CITY SKY/WX TMP DP RH WIND PRES REMARKS
 
*ORANGE CLOUDY 73 70 93 S9 29.93S  
PORT ARTHUR CLOUDY 71 69 93 S8 29.90S  
GALVESTON CLOUDY 74 72 93 SE9 29.89F  
ANGLETON CLOUDY 73 71 93 S8 29.88F  
*BAY CITY CLOUDY 72 71 97 CALM 29.88S  
PALACIOS CLOUDY 72 70 93 S7 29.86F  

 
 
TXZ229>234-239>247-270900-  
TEXAS COASTAL BEND AND RIO GRANDE PLAINS  
 
CITY SKY/WX TMP DP RH WIND PRES REMARKS
 
VICTORIA CLOUDY 68 66 93 SE8 29.85F FOG  
*BEEVILLE MOCLDY N/A N/A N/A SE7 29.83F  
ROCKPORT CLEAR 72 69 90 SE7 29.84R  
*PORT ARANSAS CLEAR 71 69 96 SE6 29.83S  
*PORT LAVACA CLOUDY 69 69 100 CALM 29.86F FOG  
*INGLESIDE MOCLDY 73 70 92 E5 29.83S  
CORPUS CHRISTI CLOUDY 73 70 90 SE14 29.81F  
CORPUS NAS CLOUDY N/A N/A N/A SE13 29.81F  
*ROBSTOWN CLOUDY 72 72 100 CALM 29.82S  
ALICE MOCLDY 65 64 97 NE7 29.80F  
KINGSVILLE NAS CLEAR 66 66 100 NE6 29.80S  
COTULLA CLEAR 71 67 87 SE9 29.78F  
*FAITH RANCH PTCLDY 72 68 88 VRB6 29.78R  
LAREDO CLEAR 72 68 87 E12 29.77S  

 
 
TXZ248>255-270900-  
DEEP SOUTH TEXAS  
 
CITY SKY/WX TMP DP RH WIND PRES REMARKS
 
BROWNSVILLE CLEAR 72 69 90 S7 29.79F  
PORT ISABEL CLEAR 74 70 87 S12 29.78F  
*SOUTH PADRE NOT AVBL  
HARLINGEN PTCLDY 72 70 93 S10 29.77F  
*HEBBRONVILLE CLEAR 67 64 90 SE3 29.80S  
MCALLEN CLEAR 73 68 84 SE12 29.76F  
*WESLACO PTCLDY 71 68 89 S7 29.76F  
FALFURRIAS CLEAR 67 65 95 NE3 29.78F  
EDINBURG CLEAR 72 68 87 SE9 29.76F  
*ZAPATA MOCLDY 71 65 83 E5 29.75F  

 
 
TXZ213>215-236>238-242>244-246-247-251-254-255-270900-  
CMAN STATIONS  
 
STATION/POSITION TIME TEMP WIND PRES WAVE
 
AIR SEA DIR/SP/G HT/PER  
(UTC) (F) (DEG/KT/KT) (MB) (FT/S)  
SABINE PASS 0748 72 74 180/ 7/ 9 1014.2  
SEA RIM ST PARK 0800 72 170/ 7/ 10 1013.3  
NORTH JETTY/GLS 0742 72 160/ 11/ 12 N/A  
EAGLE POINT 0748 74 75 180/ 12/ 18 1011.9  
MORGANS POINT 0748 74 76 170/ 9/ 12 1012.0  
MISSION/ARANSAS 0700 73 1011.0  
PORT O'CONNOR 0748 72 140/ 7/ 8 1010.6  
PORT ARANSAS 0800 71 73 130/ 7/ 8 1010.1  
MALAQUITE BEACH 0748 72 74 130/ 13/ 15 1009.8  
BAFFIN BAY 0748 72 74 110/ 12/ 15 1009.0  
PORT ISABEL 0748 74 75 150/ 10/ 13 1008.8  

 
 
 
CLICK HERE TO GO TO PREVIOUS BULLETINS.

The Nexlab TX Page Main Text Page